{"data":{"norad_id":58165,"epoch":"2026-05-24T17:14:46.671936Z","epoch_age_seconds":102590,"freshness":"FRESH","line1":"1 58165U 23166R   26144.71859574  .00002082  00000+0  82370-4 0  9991","line2":"2 58165  53.1606 226.1873 0001124  81.4816 278.6312 15.30206794144828","mean_motion":15.30206794,"eccentricity":0.0001124,"inclination_deg":53.1606,"raan_deg":226.1873,"arg_perigee_deg":81.4816,"mean_anomaly_deg":278.6312,"bstar":8.237e-5,"rev_number":14482,"period_min":94.104927885976,"perigee_km":474.4244693425,"apogee_km":475.96509832751,"semimajor_km":6853.331783835,"source":"CELESTRAK","updated_at":"2026-05-25T13:38:18.564032Z"}}